SCP
0 0 0 0 0 0 0 0 0 0 0 0 0 0 0 0 0 0 0 0 0 -0 0 0 0 0 0 0 0 0 0 0 0 0 0 0 0 0 0 1 1 1 0 0 0
0 0 0 0 0 0 0 0 0 0 0 0 0 0 0 0 0 0 0 0 0 0 0 0 0 0 0 0 0 0 0 0 0 0 0 0 0 0 1 1 1 1 1 0 0
0 0 0 0 0 0 0 0 0 0 0 0 0 0 0 0 0 0 -0 0 0 0 0 0 0 0 0 0 0 0 0 0 0 0 0 0 0 0 0 1 1 1 1 0 1
0 0 0 0 0 0 0 0 0 0 0 0 0 0 0 0 0 0 0 0 0 0 0 0 0 0 0 0 0 0 0 0 0 0 0 0 0 0 0 0 0 1 1 1 1
0 -0 -0 0 0 0 0 0 0 0 0 0 0 0 0 0 0 0 0 0 0 0 0 0 0 0 0 0 0 0 0 0 0 0 0 0 0 0 0 0 0 0 0 1 1
-0 -0 -0 0 0 0 0 0 0 0 0 0 0 0 0 0 0 0 0 -0 0 0 0 0 0 0 0 0 0 0 0 0 0 0 0 0 0 0 0 0 1 0 0 1 1
-0 -0 -0 -0 0 0 0 0 0 0 0 0 0 0 0 0 0 0 0 -0 -0 0 0 0 0 0 0 0 0 0 0 0 0 0 0 0 0 0 0 1 0 1 0 1 1
0 -0 -0 -0 -0 0 0 0 0 0 0 0 0 0 0 0 0 0 0 0 0 0 0 -0 0 0 0 0 0 0 0 0 0 0 0 0 0 0 0 1 1 0 1 1 1
0 0 -0 -0 -0 -0 -0 0 0 0 0 0 0 0 0 0 0 0 0 0 0 0 -0 -0 0 0 0 0 0 0 0 0 0 0 0 0 0 0 0 1 1 1 1 0 1
-0 0 -0 -0 -0 -0 -0 -0 0 0 0 0 0 0 0 0 0 0 0 0 0 0 -0 -0 -0 0 0 0 0 0 0 0 0 0 0 0 0 0 0 0 1 1 0 0 0
-0 0 0 -0 -0 -0 0 0 0 0 0 0 0 0 0 0 0 0 0 0 0 0 0 0 -0 -0 -0 0 0 0 0 0 0 0 0 0 0 0 0 0 1 0 0 1 1
-0 -0 0 0 -0 0 0 0 0 0 0 0 0 0 0 0 0 0 0 0 0 0 0 0 0 0 0 0 0 0 0 0 0 0 0 0 0 0 0 0 0 0 0 0 0
-0 -0 0 0 0 0 0 0 0 0 0 0 0 0 0 0 0 0 0 0 0 0 0 0 0 0 0 0 0 0 -0 0 0 0 0 0 0 0 0 0 0 0 0 0 0
-0 -0 -0 0 0 0 0 0 0 0 0 0 0 0 0 0 0 0 0 0 0 0 0 0 0 0 0 0 -0 0 0 0 0 0 0 0 0 0 0 0 0 0 0 0 0
0 -0 0 0 0 0 0 0 0 0 0 0 0 0 0 0 0 0 0 0 0 0 0 0 0 0 -0 -0 -0 0 0 0 0 0 0 0 0 0 0 0 0 0 0 0 0
-0 0 0 0 0 0 0 0 0 0 0 0 0 0 0 0 0 0 0 0 0 0 0 0 0 0 0 0 -0 0 0 0 0 0 0 0 0 0 0 0 0 0 0 0 0
-0 0 0 0 0 0 0 0 0 0 0 0 0 0 0 0 0 0 0 0 0 0 0 0 0 0 0 -0 -0 -0 0 0 0 0 0 0 0 0 0 0 0 0 0 0 0
-0 0 0 0 0 0 0 0 0 0 0 0 0 0 0 0 0 0 0 0 0 0 0 0 0 0 -0 -0 0 -0 -0 -0 0 0 0 0 0 0 0 0 0 0 0 0 0
0 0 0 0 0 0 0 0 0 0 0 0 0 0 0 0 0 0 0 0 0 0 0 0 0 0 0 -0 0 0 0 0 -0 0 0 0 0 0 0 0 0 0 0 0 0
0 0 0 0 0 0 0 0 0 0 0 0 0 0 0 0 0 0 0 0 0 0 0 0 0 0 0 -0 -0 0 0 0 0 -0 0 0 0 0 0 0 0 0 0 0 0
0 0 0 0 0 0 0 0 0 0 0 0 0 0 0 0 0 0 0 0 0 0 0 0 0 0 0 -0 0 -0 0 0 0 -0 -0 0 0 0 0 0 0 0 0 0 0
0 0 0 0 0 0 0 0 0 0 0 0 0 0 0 0 0 0 0 0 0 0 0 0 0 0 0 -0 -0 -0 -0 0 0 0 0 -0 -0 0 0 0 0 0 0 0 0
0 0 0 0 0 0 0 0 0 0 0 0 0 0 0 0 0 0 0 0 0 0 0 0 0 0 0 -0 0 0 0 0 0 -0 0 0 0 0 0 0 0 0 0 0 0
0 0 0 0 0 0 0 0 0 0 0 0 0 0 0 0 0 0 0 0 0 0 0 0 0 0 -0 0 0 0 -0 -0 0 0 0 0 -0 0 0 0 0 0 0 0 0
0 0 0 0 0 0 0 0 0 0 0 0 0 0 0 0 0 0 0 0 0 0 0 0 0 0 0 0 0 0 0 -0 -0 -0 0 -0 -0 -0 0 0 0 0 0 0 0
0 0 0 0 0 0 0 0 0 0 0 0 0 0 0 0 0 0 0 0 0 0 0 0 0 0 0 0 0 0 0 0 -0 -0 -0 -0 -0 0 0 0 0 0 0 0 0
0 0 0 0 0 0 0 0 0 0 0 0 0 0 0 0 0 0 0 0 0 0 0 0 0 0 0 0 0 0 0 0 0 0 0 0 0 0 0 0 0 0 0 0 0
Wind_Speed_500mb
20 22 27 30 30 35 34 31 28 27 26 27 29 29 27 27 20 13 17 24 28 20 15 17 23 23 28 24 12 12 2 10 11 11 16 5 7 7 9 22 16 25 17 13 62
18 18 22 24 27 27 29 29 27 26 24 27 32 35 29 27 22 15 21 27 23 14 13 14 23 22 18 12 12 9 6 11 4 3 5 5 3 9 7 13 9 20 20 31 71
16 15 16 19 22 24 24 23 25 24 24 25 29 33 35 32 20 9 35 28 22 14 8 11 18 20 14 10 10 11 8 6 4 3 8 5 2 3 6 8 19 32 38 63 72
13 13 13 16 18 20 23 24 22 22 23 26 30 33 31 25 7 31 32 25 18 11 8 8 14 7 7 9 10 5 13 13 2 9 10 5 11 6 13 8 17 23 44 80 76
14 12 12 14 17 20 22 24 25 26 24 26 29 30 33 16 15 28 22 18 10 7 4 11 16 8 8 11 15 6 10 27 23 14 16 12 8 9 15 20 14 29 52 75 72
16 15 14 14 16 20 22 25 28 26 25 25 26 27 20 8 24 31 14 10 9 2 5 6 6 13 5 8 10 24 10 23 4 10 17 5 7 7 16 22 21 42 60 70 70
18 20 19 18 19 18 17 21 26 27 24 26 25 21 15 11 28 38 9 9 5 2 4 6 8 13 13 7 4 4 7 4 11 12 7 10 8 10 10 21 34 42 49 61 67
25 20 24 25 24 21 18 19 28 34 29 27 22 21 8 16 21 32 8 6 6 2 7 10 5 9 4 6 4 6 8 7 5 20 10 2 10 11 15 24 33 37 47 59 64
25 24 23 28 31 31 27 30 33 37 28 27 14 14 7 14 14 22 19 3 9 9 6 9 3 2 4 4 4 2 6 10 8 24 8 8 8 7 13 20 29 35 43 41 47
25 28 24 25 28 33 33 33 33 31 17 13 11 5 8 16 15 12 18 18 12 11 11 4 8 5 5 3 7 2 1 3 8 8 13 9 15 9 10 19 28 31 29 40 44
31 27 27 24 24 28 25 21 15 9 15 6 13 6 16 19 6 7 6 8 15 21 6 6 4 4 7 5 7 16 8 8 10 8 8 13 10 12 5 11 16 31 18 37 47
40 27 27 23 21 20 15 4 6 11 13 10 7 11 8 8 6 3 5 7 4 9 2 7 7 6 7 8 4 9 13 12 5 4 6 12 10 8 5 8 15 31 30 24 42
42 24 27 21 18 15 13 8 6 8 4 5 9 6 5 5 7 6 9 10 7 5 5 6 7 8 5 3 7 8 13 7 7 5 8 10 2 4 2 7 13 22 33 18 12
40 21 29 21 9 15 7 10 8 6 9 10 5 3 5 5 6 5 9 3 5 8 13 7 9 4 6 5 5 5 12 7 1 4 7 2 6 7 6 6 4 9 20 15 22
37 20 28 23 12 11 9 7 6 5 9 8 10 10 11 1 7 3 2 4 6 4 8 6 8 9 6 1 7 8 4 9 6 7 6 5 5 5 1 10 8 15 24 38 26
37 21 22 23 15 10 8 5 7 12 8 9 7 10 7 7 7 9 5 4 3 2 3 2 3 1 6 10 8 7 6 4 7 5 4 6 4 5 7 7 6 12 30 36 43
37 26 16 21 14 10 6 6 10 9 4 9 6 9 5 7 8 11 7 11 5 7 9 8 2 4 2 1 2 3 8 7 7 8 5 5 3 10 6 7 6 6 13 25 33
38 29 19 14 11 7 7 9 9 7 9 6 4 7 3 8 2 11 4 8 4 4 5 6 10 3 4 3 6 5 7 10 6 7 5 1 8 8 4 14 12 13 13 22 34
37 30 16 12 5 4 3 8 10 9 2 7 10 4 5 4 5 5 5 3 4 5 2 4 5 4 5 4 3 6 1 7 12 4 4 4 9 11 6 6 14 5 24 27 31
46 26 11 9 4 2 8 8 6 6 4 3 3 0 3 7 6 6 2 3 3 3 5 2 3 5 3 6 6 1 8 3 5 7 6 6 7 8 4 2 5 12 22 29 30
42 20 5 6 6 5 5 10 9 10 8 7 3 5 8 4 2 5 4 2 6 4 6 1 6 4 2 3 11 2 3 8 6 5 7 5 9 8 8 4 7 11 23 30 32
22 10 10 8 3 1 5 10 7 7 8 6 6 8 6 3 5 5 6 8 7 3 5 3 6 4 2 4 2 4 8 8 7 4 2 4 8 5 4 3 13 18 21 26 31
31 14 12 11 4 4 6 7 10 11 8 9 9 11 6 4 4 6 5 2 4 5 3 6 1 4 9 6 2 4 3 5 8 6 8 7 7 5 7 14 16 29 29 33 36
10 6 6 11 8 4 5 7 7 11 8 10 7 4 5 6 9 7 5 3 3 1 1 2 1 8 10 7 3 5 6 5 4 4 6 9 8 7 9 12 18 31 35 37 38
9 11 7 6 7 7 2 5 6 8 12 17 5 13 13 9 6 9 7 4 2 3 4 4 4 3 9 8 3 6 8 10 11 7 7 3 13 12 11 13 22 32 38 43 43
11 9 4 10 9 9 8 9 12 7 14 11 12 9 14 12 14 13 11 8 8 1 4 2 2 1 6 3 5 8 13 11 6 4 8 6 8 9 24 24 30 41 47 49 47
24 35 18 14 6 10 11 14 12 9 18 8 16 9 13 22 18 4 9 9 7 11 7 4 8 4 7 3 6 12 16 18 8 7 12 11 13 17 8 20 38 42 44 45 41
Wind_Direction_500mb
11 14 17 16 21 22 19 17 15 17 24 21 9 356 348 348 339 359 351 329 315 295 292 243 236 231 219 190 161 156 114 207 176 172 202 171 179 196 190 150 166 182 158 190 164
357 11 21 20 23 14 15 18 18 20 16 15 13 4 346 339 334 315 342 338 324 304 290 251 229 212 206 185 178 150 184 205 225 192 276 323 192 177 167 152 173 173 171 169 164
339 359 13 17 22 16 10 12 14 15 12 4 358 355 358 353 334 354 335 324 320 303 285 263 219 195 189 176 189 168 189 227 281 8 359 296 225 304 173 214 202 188 167 166 169
316 336 348 10 13 12 8 6 357 353 352 347 346 349 348 352 0 327 327 318 307 298 271 231 200 176 198 175 190 188 178 207 276 20 11 347 318 287 220 224 214 199 183 171 173
292 307 314 345 357 0 357 353 349 343 335 331 338 342 357 15 345 329 333 319 315 291 250 212 184 201 208 174 153 267 204 210 235 317 330 326 273 250 248 230 228 180 172 172 172
292 281 290 315 339 347 356 357 351 333 326 329 335 333 342 13 356 346 340 339 331 295 228 123 204 205 287 183 180 199 178 229 267 273 310 325 287 191 231 214 184 180 173 175 178
314 283 276 286 307 326 339 353 351 353 336 309 330 336 327 331 331 359 303 335 331 355 210 171 75 142 221 156 219 119 178 311 220 193 265 320 276 223 229 194 170 179 175 176 187
345 305 279 274 284 295 308 325 328 330 324 334 313 325 306 326 328 12 339 341 354 133 76 179 155 244 57 101 100 96 120 177 250 158 235 47 281 263 217 194 177 182 181 189 187
344 336 297 281 276 280 285 301 314 320 317 325 323 323 326 351 340 13 16 36 72 91 118 127 145 110 106 114 107 298 177 202 301 198 149 171 263 309 197 203 175 176 184 177 177
348 342 323 295 290 283 281 289 303 306 310 323 338 347 332 333 349 24 63 61 64 86 90 71 33 40 31 132 200 206 73 213 222 217 178 157 263 306 223 214 179 192 188 176 172
352 346 338 318 309 300 295 293 294 296 304 265 310 280 302 315 331 18 69 68 71 47 43 26 36 200 236 235 340 140 252 248 211 236 131 185 262 284 194 230 177 172 227 167 146
355 350 349 332 329 328 325 292 277 289 308 303 309 304 305 295 283 309 127 93 144 136 52 14 267 261 288 210 226 151 269 279 250 170 116 168 249 292 164 248 186 168 222 203 174
355 351 352 345 337 350 359 343 315 298 298 304 321 303 310 261 290 315 186 153 143 97 204 114 300 128 322 196 178 188 205 233 187 145 60 120 307 274 313 204 178 164 169 216 135
355 355 357 355 1 350 7 347 342 324 64 290 337 342 330 267 247 270 202 208 204 227 172 225 192 129 43 23 139 251 201 246 111 77 153 39 210 250 233 212 222 187 175 182 183
357 352 1 356 350 357 349 358 0 343 35 275 297 318 316 231 328 323 263 196 244 191 103 242 177 172 150 200 232 233 155 197 128 111 87 334 84 234 180 206 206 175 186 199 185
353 347 354 358 352 354 348 359 350 42 271 343 297 349 8 15 354 321 225 239 262 112 136 151 4 199 203 192 225 342 91 79 56 94 60 304 115 270 191 203 165 184 192 189 185
348 340 334 353 344 345 353 346 40 108 321 302 321 7 306 308 341 32 33 8 63 61 11 2 24 315 331 210 191 214 63 21 21 22 201 311 40 238 235 208 218 230 185 186 183
342 333 319 336 341 350 346 54 72 236 248 328 324 303 319 340 15 4 68 12 19 44 95 88 341 357 343 204 197 195 163 140 202 187 213 276 212 258 266 296 293 258 198 168 171
340 332 309 313 318 352 356 50 213 198 281 326 313 307 311 325 297 56 24 248 238 26 117 111 235 248 213 157 145 186 282 146 103 25 68 235 284 318 337 2 23 108 163 154 150
337 325 287 294 269 298 86 241 224 210 158 76 298 264 288 302 333 25 262 205 262 209 143 272 331 208 149 125 27 206 161 80 11 132 229 283 265 223 262 8 61 100 138 138 139
337 324 266 277 287 249 164 214 254 229 188 157 255 283 258 285 250 280 280 204 214 250 175 133 124 268 210 136 184 118 8 46 112 130 178 174 251 207 214 230 128 126 136 136 136
343 332 290 263 309 46 200 194 183 211 198 216 180 215 220 266 267 262 259 232 193 248 188 192 155 259 125 293 337 307 173 152 120 222 228 145 276 359 313 12 177 138 134 134 134
332 286 281 231 231 243 258 265 219 164 213 190 232 194 166 228 291 209 243 271 188 184 219 185 196 15 348 351 87 256 223 110 107 99 201 154 254 66 80 75 112 125 126 131 130
313 332 263 219 256 225 216 226 252 215 195 193 234 172 148 230 201 293 276 197 183 295 127 124 147 177 191 213 179 240 187 165 123 110 181 218 166 233 154 127 128 129 130 128 121
255 227 235 275 260 234 207 191 211 238 218 196 214 218 187 202 199 220 225 286 190 157 105 109 254 141 271 253 248 254 217 181 177 199 174 292 175 197 178 153 135 127 124 120 119
269 272 249 266 247 170 190 233 215 237 166 235 205 178 196 207 195 201 169 199 213 134 136 50 259 197 283 169 204 273 252 227 225 234 270 143 223 154 155 146 144 144 140 132 128
243 256 268 254 216 145 209 217 225 183 227 219 215 145 191 230 221 210 184 128 164 167 179 172 148 117 269 276 280 287 222 186 189 196 152 173 217 147 149 162 159 152 146 138 134
Wind_Speed_850mb
20 22 27 30 30 35 34 31 28 27 26 27 29 29 27 27 20 13 17 24 28 20 15 17 23 23 28 24 12 12 2 10 11 11 16 5 7 7 9 22 16 25 17 13 62
18 18 22 24 27 27 29 29 27 26 24 27 32 35 29 27 22 15 21 27 23 14 13 14 23 22 18 12 12 9 6 11 4 3 5 5 3 9 7 13 9 20 20 31 71
16 15 16 19 22 24 24 23 25 24 24 25 29 33 35 32 20 9 35 28 22 14 8 11 18 20 14 10 10 11 8 6 4 3 8 5 2 3 6 8 19 32 38 63 72
13 13 13 16 18 20 23 24 22 22 23 26 30 33 31 25 7 31 32 25 18 11 8 8 14 7 7 9 10 5 13 13 2 9 10 5 11 6 13 8 17 23 44 80 76
14 12 12 14 17 20 22 24 25 26 24 26 29 30 33 16 15 28 22 18 10 7 4 11 16 8 8 11 15 6 10 27 23 14 16 12 8 9 15 20 14 29 52 75 72
16 15 14 14 16 20 22 25 28 26 25 25 26 27 20 8 24 31 14 10 9 2 5 6 6 13 5 8 10 24 10 23 4 10 17 5 7 7 16 22 21 42 60 70 70
18 20 19 18 19 18 17 21 26 27 24 26 25 21 15 11 28 38 9 9 5 2 4 6 8 13 13 7 4 4 7 4 11 12 7 10 8 10 10 21 34 42 49 61 67
25 20 24 25 24 21 18 19 28 34 29 27 22 21 8 16 21 32 8 6 6 2 7 10 5 9 4 6 4 6 8 7 5 20 10 2 10 11 15 24 33 37 47 59 64
25 24 23 28 31 31 27 30 33 37 28 27 14 14 7 14 14 22 19 3 9 9 6 9 3 2 4 4 4 2 6 10 8 24 8 8 8 7 13 20 29 35 43 41 47
25 28 24 25 28 33 33 33 33 31 17 13 11 5 8 16 15 12 18 18 12 11 11 4 8 5 5 3 7 2 1 3 8 8 13 9 15 9 10 19 28 31 29 40 44
31 27 27 24 24 28 25 21 15 9 15 6 13 6 16 19 6 7 6 8 15 21 6 6 4 4 7 5 7 16 8 8 10 8 8 13 10 12 5 11 16 31 18 37 47
40 27 27 23 21 20 15 4 6 11 13 10 7 11 8 8 6 3 5 7 4 9 2 7 7 6 7 8 4 9 13 12 5 4 6 12 10 8 5 8 15 31 30 24 42
42 24 27 21 18 15 13 8 6 8 4 5 9 6 5 5 7 6 9 10 7 5 5 6 7 8 5 3 7 8 13 7 7 5 8 10 2 4 2 7 13 22 33 18 12
40 21 29 21 9 15 7 10 8 6 9 10 5 3 5 5 6 5 9 3 5 8 13 7 9 4 6 5 5 5 12 7 1 4 7 2 6 7 6 6 4 9 20 15 22
37 20 28 23 12 11 9 7 6 5 9 8 10 10 11 1 7 3 2 4 6 4 8 6 8 9 6 1 7 8 4 9 6 7 6 5 5 5 1 10 8 15 24 38 26
37 21 22 23 15 10 8 5 7 12 8 9 7 10 7 7 7 9 5 4 3 2 3 2 3 1 6 10 8 7 6 4 7 5 4 6 4 5 7 7 6 12 30 36 43
37 26 16 21 14 10 6 6 10 9 4 9 6 9 5 7 8 11 7 11 5 7 9 8 2 4 2 1 2 3 8 7 7 8 5 5 3 10 6 7 6 6 13 25 33
38 29 19 14 11 7 7 9 9 7 9 6 4 7 3 8 2 11 4 8 4 4 5 6 10 3 4 3 6 5 7 10 6 7 5 1 8 8 4 14 12 13 13 22 34
37 30 16 12 5 4 3 8 10 9 2 7 10 4 5 4 5 5 5 3 4 5 2 4 5 4 5 4 3 6 1 7 12 4 4 4 9 11 6 6 14 5 24 27 31
46 26 11 9 4 2 8 8 6 6 4 3 3 0 3 7 6 6 2 3 3 3 5 2 3 5 3 6 6 1 8 3 5 7 6 6 7 8 4 2 5 12 22 29 30
42 20 5 6 6 5 5 10 9 10 8 7 3 5 8 4 2 5 4 2 6 4 6 1 6 4 2 3 11 2 3 8 6 5 7 5 9 8 8 4 7 11 23 30 32
22 10 10 8 3 1 5 10 7 7 8 6 6 8 6 3 5 5 6 8 7 3 5 3 6 4 2 4 2 4 8 8 7 4 2 4 8 5 4 3 13 18 21 26 31
31 14 12 11 4 4 6 7 10 11 8 9 9 11 6 4 4 6 5 2 4 5 3 6 1 4 9 6 2 4 3 5 8 6 8 7 7 5 7 14 16 29 29 33 36
10 6 6 11 8 4 5 7 7 11 8 10 7 4 5 6 9 7 5 3 3 1 1 2 1 8 10 7 3 5 6 5 4 4 6 9 8 7 9 12 18 31 35 37 38
9 11 7 6 7 7 2 5 6 8 12 17 5 13 13 9 6 9 7 4 2 3 4 4 4 3 9 8 3 6 8 10 11 7 7 3 13 12 11 13 22 32 38 43 43
11 9 4 10 9 9 8 9 12 7 14 11 12 9 14 12 14 13 11 8 8 1 4 2 2 1 6 3 5 8 13 11 6 4 8 6 8 9 24 24 30 41 47 49 47
24 35 18 14 6 10 11 14 12 9 18 8 16 9 13 22 18 4 9 9 7 11 7 4 8 4 7 3 6 12 16 18 8 7 12 11 13 17 8 20 38 42 44 45 41
Wind_Direction_850mb
11 14 17 16 21 22 19 17 15 17 24 21 9 356 348 348 339 359 351 329 315 295 292 243 236 231 219 190 161 156 114 207 176 172 202 171 179 196 190 150 166 182 158 190 164
357 11 21 20 23 14 15 18 18 20 16 15 13 4 346 339 334 315 342 338 324 304 290 251 229 212 206 185 178 150 184 205 225 192 276 323 192 177 167 152 173 173 171 169 164
339 359 13 17 22 16 10 12 14 15 12 4 358 355 358 353 334 354 335 324 320 303 285 263 219 195 189 176 189 168 189 227 281 8 359 296 225 304 173 214 202 188 167 166 169
316 336 348 10 13 12 8 6 357 353 352 347 346 349 348 352 0 327 327 318 307 298 271 231 200 176 198 175 190 188 178 207 276 20 11 347 318 287 220 224 214 199 183 171 173
292 307 314 345 357 0 357 353 349 343 335 331 338 342 357 15 345 329 333 319 315 291 250 212 184 201 208 174 153 267 204 210 235 317 330 326 273 250 248 230 228 180 172 172 172
292 281 290 315 339 347 356 357 351 333 326 329 335 333 342 13 356 346 340 339 331 295 228 123 204 205 287 183 180 199 178 229 267 273 310 325 287 191 231 214 184 180 173 175 178
314 283 276 286 307 326 339 353 351 353 336 309 330 336 327 331 331 359 303 335 331 355 210 171 75 142 221 156 219 119 178 311 220 193 265 320 276 223 229 194 170 179 175 176 187
345 305 279 274 284 295 308 325 328 330 324 334 313 325 306 326 328 12 339 341 354 133 76 179 155 244 57 101 100 96 120 177 250 158 235 47 281 263 217 194 177 182 181 189 187
344 336 297 281 276 280 285 301 314 320 317 325 323 323 326 351 340 13 16 36 72 91 118 127 145 110 106 114 107 298 177 202 301 198 149 171 263 309 197 203 175 176 184 177 177
348 342 323 295 290 283 281 289 303 306 310 323 338 347 332 333 349 24 63 61 64 86 90 71 33 40 31 132 200 206 73 213 222 217 178 157 263 306 223 214 179 192 188 176 172
352 346 338 318 309 300 295 293 294 296 304 265 310 280 302 315 331 18 69 68 71 47 43 26 36 200 236 235 340 140 252 248 211 236 131 185 262 284 194 230 177 172 227 167 146
355 350 349 332 329 328 325 292 277 289 308 303 309 304 305 295 283 309 127 93 144 136 52 14 267 261 288 210 226 151 269 279 250 170 116 168 249 292 164 248 186 168 222 203 174
355 351 352 345 337 350 359 343 315 298 298 304 321 303 310 261 290 315 186 153 143 97 204 114 300 128 322 196 178 188 205 233 187 145 60 120 307 274 313 204 178 164 169 216 135
355 355 357 355 1 350 7 347 342 324 64 290 337 342 330 267 247 270 202 208 204 227 172 225 192 129 43 23 139 251 201 246 111 77 153 39 210 250 233 212 222 187 175 182 183
357 352 1 356 350 357 349 358 0 343 35 275 297 318 316 231 328 323 263 196 244 191 103 242 177 172 150 200 232 233 155 197 128 111 87 334 84 234 180 206 206 175 186 199 185
353 347 354 358 352 354 348 359 350 42 271 343 297 349 8 15 354 321 225 239 262 112 136 151 4 199 203 192 225 342 91 79 56 94 60 304 115 270 191 203 165 184 192 189 185
348 340 334 353 344 345 353 346 40 108 321 302 321 7 306 308 341 32 33 8 63 61 11 2 24 315 331 210 191 214 63 21 21 22 201 311 40 238 235 208 218 230 185 186 183
342 333 319 336 341 350 346 54 72 236 248 328 324 303 319 340 15 4 68 12 19 44 95 88 341 357 343 204 197 195 163 140 202 187 213 276 212 258 266 296 293 258 198 168 171
340 332 309 313 318 352 356 50 213 198 281 326 313 307 311 325 297 56 24 248 238 26 117 111 235 248 213 157 145 186 282 146 103 25 68 235 284 318 337 2 23 108 163 154 150
337 325 287 294 269 298 86 241 224 210 158 76 298 264 288 302 333 25 262 205 262 209 143 272 331 208 149 125 27 206 161 80 11 132 229 283 265 223 262 8 61 100 138 138 139
337 324 266 277 287 249 164 214 254 229 188 157 255 283 258 285 250 280 280 204 214 250 175 133 124 268 210 136 184 118 8 46 112 130 178 174 251 207 214 230 128 126 136 136 136
343 332 290 263 309 46 200 194 183 211 198 216 180 215 220 266 267 262 259 232 193 248 188 192 155 259 125 293 337 307 173 152 120 222 228 145 276 359 313 12 177 138 134 134 134
332 286 281 231 231 243 258 265 219 164 213 190 232 194 166 228 291 209 243 271 188 184 219 185 196 15 348 351 87 256 223 110 107 99 201 154 254 66 80 75 112 125 126 131 130
313 332 263 219 256 225 216 226 252 215 195 193 234 172 148 230 201 293 276 197 183 295 127 124 147 177 191 213 179 240 187 165 123 110 181 218 166 233 154 127 128 129 130 128 121
255 227 235 275 260 234 207 191 211 238 218 196 214 218 187 202 199 220 225 286 190 157 105 109 254 141 271 253 248 254 217 181 177 199 174 292 175 197 178 153 135 127 124 120 119
269 272 249 266 247 170 190 233 215 237 166 235 205 178 196 207 195 201 169 199 213 134 136 50 259 197 283 169 204 273 252 227 225 234 270 143 223 154 155 146 144 144 140 132 128
243 256 268 254 216 145 209 217 225 183 227 219 215 145 191 230 221 210 184 128 164 167 179 172 148 117 269 276 280 287 222 186 189 196 152 173 217 147 149 162 159 152 146 138 134